Location: *
(43.0409°N, 0.1694°E)
Time: 22:45:12
(UTC+00:00)

Cosmos 1655 Rocket - Pass Details

Date: 03 October 2023
Orbit: 969 x 1006 km, 83.0° (Epoch: 05 December)

Event Time Altitude Azimuth Distance (km) Brightness Sun altitude
Exits shadow 02:43:50 58° 51° (NE) 1,164 4.5 -34.9°
Drops below altitude 10° 02:49:13 10° 13° (NNE) 2,788 6.8 -34.0°
Sets 02:51:46 0° 11° (N) 3,740 7.6 -33.6°
